Location: Carri�res
(48.9069°N, 2.1792°E)
Time: 03:50:46
(UTC+00:00)

ARGOS - Pass Details

Date: 17 January 2021
Orbit: 821 x 834 km, 98.4° (Epoch: 26 February)

Event Time Altitude Azimuth Distance (km) Brightness Sun altitude
Rises 18:26:25 0° 154° (SSE) 3,342 6.1 -19.4°
Reaches altitude 10° 18:28:46 10° 151° (SSE) 2,414 5.4 -19.7°
Maximum altitude 18:34:03 64° 71° (ENE) 909 3.0 -20.6°
Drops below altitude 10° 18:39:23 10° 351° (N) 2,436 5.6 -21.5°
Sets 18:41:45 0° 349° (NNW) 3,375 6.4 -21.9°
